Orbital Elements
Epoch 2016 July 31.0 TT = JDT 2457600.5
T 2016 July 16.14816 TT MPCW
q 3.1584611 (2000.0) P Q
n 0.12110594 Peri. 196.60878 +0.98789063 +0.15379794
a 4.0459989 Node 154.51711 -0.13639728 +0.92372226
e 0.2193618 Incl. 2.72467 -0.07394511 +0.35083240
P 8.14
From 116 observations 2008 Sept. 2-2016 Dec. 27, mean residual 0".5.
|